Theta_e
330 332 335 337 338 338 337 335 335 337 338 337 335 334 332 334 337 339 338 338 338 338 337 336 336 336 336 338 338 337 335 335 335 333 332 331 332 331 329 326 323 326 330 331 332 332 334 336 337 335 333 331 331 330 327 324 322 322 324 327 327 327
327 331 332 333 336 338 337 336 337 338 339 337 335 336 334 335 337 339 339 338 338 338 337 337 336 336 336 337 337 336 335 335 334 333 332 331 332 331 329 329 326 326 330 332 332 333 335 336 336 336 334 331 330 330 327 325 322 321 324 327 327 328
335 335 334 335 337 338 338 338 338 338 339 337 336 337 336 336 336 338 339 338 338 337 337 337 336 335 335 336 336 335 335 335 334 333 332 331 331 332 330 329 330 330 331 332 332 334 335 336 336 335 334 331 331 330 326 324 321 319 323 326 327 328
340 339 337 338 339 339 340 339 339 339 338 337 337 337 337 337 337 338 338 337 337 337 337 336 335 335 335 336 336 335 334 334 334 333 333 332 331 332 331 330 330 331 331 331 333 334 335 336 336 334 333 332 331 328 325 323 320 318 321 326 328 328
338 338 338 338 338 339 340 339 340 339 338 338 337 337 338 339 339 338 338 337 336 336 335 334 334 334 335 335 335 335 333 333 334 334 333 332 331 331 331 331 329 329 329 331 333 334 335 336 335 333 331 331 329 327 325 323 322 320 321 325 327 327
333 336 338 337 337 338 339 340 340 339 338 338 338 338 339 340 340 338 337 337 336 336 334 333 334 334 334 334 334 334 332 332 333 333 333 332 332 331 330 331 332 332 331 332 333 333 335 337 336 332 330 329 328 328 326 324 324 323 323 325 326 326
333 334 337 337 336 336 338 339 339 339 338 338 339 339 340 341 341 339 337 338 337 335 333 333 335 334 333 332 333 334 333 332 331 331 332 332 332 331 330 331 332 334 333 334 334 335 336 337 336 334 331 329 329 329 327 326 325 325 324 325 325 327
334 333 336 336 335 336 337 338 338 339 339 338 340 340 341 341 340 339 338 338 336 335 334 334 335 335 333 332 333 333 333 330 329 330 331 332 332 331 331 330 331 333 332 333 334 336 337 336 336 335 333 331 330 330 328 327 327 326 326 324 324 327
335 334 334 334 335 336 336 337 339 339 338 339 340 341 340 340 339 339 338 337 336 335 334 335 335 335 334 332 332 331 329 328 328 329 330 330 331 331 331 330 331 331 332 332 332 335 336 335 335 335 333 332 332 331 329 328 328 327 327 325 323 326
335 335 334 334 335 335 335 337 338 339 338 338 340 340 340 340 339 338 337 336 337 336 335 335 335 334 333 332 330 329 329 329 329 330 329 329 329 330 330 330 331 331 331 331 331 333 335 334 334 334 333 332 332 332 331 330 329 327 327 326 323 323
337 337 335 335 335 335 335 337 338 338 337 338 339 339 340 340 338 337 336 336 337 337 336 335 335 334 333 332 332 331 331 331 330 331 332 331 330 331 331 331 331 330 331 331 331 332 334 334 332 333 333 332 331 332 332 330 329 328 327 327 324 323
338 338 337 336 335 334 335 337 339 339 338 338 338 338 338 339 338 336 336 337 337 337 336 335 334 334 334 334 334 333 332 332 332 332 333 333 332 332 332 331 331 331 331 332 331 332 334 333 332 332 332 331 331 332 332 331 330 328 327 327 326 325
339 339 338 336 334 334 335 338 339 340 340 339 338 338 338 338 337 336 336 337 338 337 335 334 334 334 334 335 335 334 333 333 334 333 333 334 333 333 332 332 333 331 331 332 332 333 333 332 332 332 331 330 332 333 332 332 331 328 327 327 326 326
339 339 338 336 333 333 335 337 339 341 340 339 338 338 338 338 337 336 335 336 338 337 335 334 334 334 333 334 335 335 335 334 334 333 333 334 334 333 333 333 334 333 333 332 332 333 333 332 332 331 330 330 331 333 332 332 331 328 328 327 327 327
339 338 337 334 332 332 335 337 338 340 340 339 339 339 338 338 337 336 335 336 337 337 335 333 334 334 333 334 335 334 335 334 334 333 332 334 334 334 334 334 334 333 333 333 333 333 332 332 332 331 330 330 331 332 332 332 331 330 328 328 327 327
339 338 336 334 331 332 335 337 337 339 340 339 339 338 338 337 337 336 336 336 336 336 335 333 334 334 333 334 335 334 334 335 334 334 334 335 334 334 335 334 334 333 332 333 333 332 332 331 331 331 331 330 330 331 332 332 332 331 330 328 327 326
338 337 335 334 334 334 336 336 336 338 339 339 338 338 337 337 337 337 337 337 336 336 335 334 334 333 333 335 335 335 335 335 334 334 334 335 335 335 335 334 333 333 332 332 332 332 331 331 331 331 331 330 330 330 331 332 332 332 331 330 329 327
339 338 337 336 336 336 336 336 337 338 338 339 338 338 338 337 337 337 336 336 336 336 335 334 334 333 333 335 336 335 335 335 334 334 334 335 335 335 335 334 332 332 332 331 332 332 332 331 331 331 330 331 330 330 331 331 331 331 331 331 330 329
339 338 338 336 337 337 337 337 338 338 338 338 338 338 338 337 337 336 336 336 336 335 334 334 334 333 333 334 335 335 335 335 335 335 334 335 336 335 334 334 333 332 331 331 332 332 331 331 331 331 331 331 331 330 331 331 331 331 331 331 331 330
339 338 338 336 337 338 338 339 338 338 337 337 338 338 337 337 337 336 336 336 335 334 334 334 333 332 332 333 334 335 335 335 335 334 334 335 336 335 334 333 333 331 331 332 332 332 331 331 331 331 331 331 331 331 331 330 330 330 331 331 331 330
339 338 337 334 335 337 338 338 337 338 337 336 337 338 337 338 337 337 336 335 335 334 334 334 333 332 332 332 334 335 335 335 335 335 335 335 335 334 334 333 332 331 332 332 332 332 331 331 330 330 330 330 330 330 330 330 329 329 329 330 330 330
339 338 336 334 335 337 337 337 337 337 336 336 336 337 337 338 337 337 336 335 335 335 334 333 333 332 332 333 333 334 335 335 335 336 335 335 334 333 335 334 332 332 332 333 332 332 331 330 330 330 330 330 330 330 330 329 329 329 328 329 329 329
338 337 336 334 335 336 336 336 336 336 336 335 335 335 336 337 337 337 336 335 336 335 334 333 333 333 333 333 333 333 334 335 336 336 335 334 333 334 335 334 331 331 332 332 332 332 331 330 330 330 329 330 330 329 329 329 329 329 328 329 329 329
337 336 336 335 335 335 336 335 335 335 335 335 334 334 335 335 336 336 336 335 335 335 334 334 334 334 334 333 332 333 333 334 336 335 334 334 334 334 335 333 331 331 332 332 331 331 330 330 330 329 330 330 328 329 330 329 328 329 329 329 329 329
335 335 336 336 334 334 335 334 334 334 334 333 333 334 335 335 335 335 335 334 334 335 334 334 335 334 335 333 332 333 333 333 336 335 334 334 334 335 335 334 332 331 332 332 331 330 330 331 330 329 330 330 329 330 330 329 328 329 328 329 329 328
335 335 335 336 334 333 334 334 333 333 333 332 331 333 334 335 335 335 334 333 334 335 334 334 335 335 335 334 333 334 333 333 335 336 334 333 334 334 334 334 333 332 332 332 331 331 331 331 330 329 330 329 330 331 329 327 329 329 328 329 328 328
336 335 335 335 333 333 334 334 334 335 334 332 332 333 334 334 335 335 334 333 334 334 335 335 335 335 335 334 333 334 334 335 336 335 334 334 333 333 334 334 333 333 332 332 332 332 332 331 330 330 330 329 330 330 328 327 328 328 329 329 329 328
337 335 335 335 333 334 335 334 334 335 334 334 333 333 334 335 334 333 333 333 334 334 335 335 335 335 335 334 333 334 335 335 335 335 334 334 334 333 333 333 333 333 333 332 332 332 332 331 330 331 330 330 330 329 327 327 327 327 328 329 329 328
337 336 335 335 334 334 335 335 334 334 334 334 334 334 334 334 333 333 333 333 334 334 335 335 335 335 335 335 334 334 335 335 335 334 334 335 334 333 333 333 333 333 333 333 332 332 331 331 330 330 331 331 329 327 327 327 327 326 327 329 330 328
337 336 336 335 334 334 334 335 335 334 334 334 334 334 334 334 334 334 334 334 334 334 335 335 334 334 335 335 335 335 335 335 335 334 335 334 334 334 333 333 334 333 333 333 332 332 331 331 330 330 330 331 328 327 328 327 326 327 327 327 329 328
335 336 336 335 335 334 334 335 335 334 335 334 333 333 333 334 334 335 335 334 334 335 335 335 334 334 334 334 335 336 336 335 335 335 334 334 333 334 333 333 333 333 332 332 332 332 331 331 331 330 330 330 329 328 328 328 327 327 326 326 327 327
334 335 335 335 335 335 334 335 335 334 334 334 334 333 332 333 334 335 336 335 335 335 334 333 334 334 334 335 335 335 335 335 335 334 333 333 334 333 333 333 333 332 332 332 332 332 331 331 331 330 330 330 330 328 328 329 328 327 327 326 327 326
334 334 335 335 334 334 334 334 333 334 334 334 334 332 332 332 333 335 335 335 336 335 334 332 333 334 334 335 335 334 335 335 335 334 334 334 333 333 333 333 332 332 331 332 332 332 332 331 331 331 331 330 330 329 329 329 328 327 327 326 326 325
335 335 334 334 334 333 333 333 333 334 334 333 334 332 332 332 332 334 334 335 336 335 334 333 333 334 334 334 334 334 335 334 334 334 333 333 333 332 332 332 332 332 332 332 332 332 331 331 331 330 330 330 330 330 330 329 329 328 327 326 326 325
334 334 333 333 333 332 332 333 333 333 334 334 334 333 332 332 332 333 334 335 336 335 335 334 334 334 334 334 333 333 334 333 333 333 332 332 332 332 331 332 332 332 332 333 332 331 331 331 330 330 330 330 330 330 330 330 330 329 328 327 327 326
330 330 330 331 332 332 332 332 333 334 334 334 335 333 332 333 332 333 334 335 335 336 335 334 334 334 333 333 333 333 333 333 333 332 331 331 331 331 331 332 333 333 332 332 332 331 331 331 330 329 330 330 330 330 331 330 330 329 328 328 327 327
329 328 329 330 331 331 331 331 332 334 334 334 334 333 332 333 333 333 334 335 335 336 335 334 334 333 333 333 333 333 332 332 332 332 331 332 331 331 331 332 332 333 333 332 332 331 331 332 331 330 330 330 330 330 330 330 329 328 329 328 327 327
Wind_Speed
27 27 26 25 25 25 25 25 25 24 22 21 21 21 22 21 19 19 19 19 19 19 17 15 14 14 14 13 12 10 10 11 11 12 12 11 12 13 14 14 17 19 18 17 16 16 16 16 16 12 12 13 12 12 13 14 14 15 18 18 17 16
34 32 31 30 28 28 27 27 26 25 24 22 22 22 22 21 20 19 19 20 20 19 17 15 14 14 15 14 13 11 10 11 11 12 13 12 12 13 15 15 17 19 19 17 15 15 15 14 14 12 11 12 12 12 13 13 13 15 17 17 17 16
32 32 31 29 29 29 28 28 27 26 25 24 23 23 23 23 21 21 20 20 20 18 17 15 13 13 14 14 13 10 10 12 12 13 14 13 11 12 15 17 17 18 18 16 14 14 14 12 13 13 11 13 12 12 12 13 13 14 16 17 16 15
24 28 28 26 27 27 27 27 27 26 25 24 24 24 24 24 23 22 21 20 20 19 17 15 13 12 13 14 13 11 10 12 13 13 14 14 12 12 14 16 17 17 16 14 13 13 12 10 11 12 12 12 12 11 12 13 13 14 15 16 16 15
26 27 28 26 27 26 26 27 26 26 25 25 24 25 24 24 23 22 21 21 20 19 18 16 15 14 14 15 14 12 11 12 14 14 14 14 13 12 12 15 16 15 14 13 12 12 9 7 8 11 12 13 12 12 12 13 12 13 14 15 15 14
31 29 27 27 27 26 26 27 26 26 25 24 24 24 24 24 24 23 22 22 21 20 19 18 17 16 15 15 14 12 11 12 14 14 14 14 14 12 12 14 15 15 13 11 11 9 6 3 6 9 11 13 12 12 12 12 12 11 12 13 13 14
31 30 28 26 26 26 26 26 26 24 24 24 23 23 24 24 24 24 23 22 22 21 20 19 18 17 16 15 13 11 10 11 13 14 13 13 14 13 12 14 15 13 11 9 9 8 5 3 3 7 9 11 11 12 12 12 11 10 11 11 11 12
30 30 29 27 26 26 25 25 24 22 22 23 22 23 24 24 25 25 24 23 23 22 21 21 19 17 16 14 12 10 9 10 12 13 13 12 14 14 13 13 14 12 10 7 6 7 7 5 4 5 7 9 11 11 11 12 11 10 11 11 11 12
31 31 29 28 27 26 25 24 23 22 23 23 22 23 23 23 25 24 24 23 23 23 22 21 20 18 16 14 12 11 10 11 13 13 13 13 13 14 13 13 13 12 9 6 5 8 9 8 6 5 6 8 9 10 11 11 10 10 11 11 11 11
31 30 28 28 27 26 25 24 23 22 23 23 23 23 23 23 24 24 24 23 23 22 21 21 20 18 17 15 14 13 12 13 14 13 12 13 13 14 13 13 13 12 9 6 6 7 10 9 7 6 6 7 8 9 11 11 11 11 11 11 11 11
30 29 28 27 27 26 25 24 23 23 23 24 24 23 23 23 24 24 23 22 22 21 21 20 19 20 19 17 15 14 12 12 13 12 11 11 12 13 12 12 11 10 7 7 7 7 10 11 8 7 7 7 9 11 12 12 12 11 11 11 11 11
29 28 26 25 27 27 26 25 23 23 23 24 24 24 24 24 24 23 22 22 22 21 21 21 20 20 19 17 15 13 12 11 11 11 10 9 10 12 11 10 9 9 7 7 8 9 11 11 8 8 8 8 11 14 13 12 13 12 11 11 11 12
28 28 26 25 27 28 27 25 24 24 24 24 24 24 25 24 24 23 22 21 22 22 22 21 21 21 19 17 15 14 13 11 9 11 12 10 10 12 12 11 10 11 9 8 10 13 13 10 9 9 9 11 14 15 14 13 12 12 12 11 11 12
28 27 25 24 26 28 28 26 24 24 23 24 24 24 25 25 25 24 22 22 23 23 23 22 21 21 19 18 16 16 15 13 11 12 14 12 12 12 13 14 12 11 11 11 14 15 13 11 10 10 10 11 15 15 14 13 12 12 13 12 11 11
28 27 25 25 27 28 29 26 25 24 23 23 23 24 25 25 26 25 23 23 24 24 23 23 22 21 20 18 17 17 16 15 14 14 14 15 14 13 13 14 12 12 13 14 16 15 12 11 12 12 11 11 13 14 12 13 13 12 12 12 11 9
28 27 25 25 27 28 28 27 26 25 23 22 22 23 23 24 25 25 24 24 25 24 23 24 23 21 20 19 17 17 17 16 16 15 15 15 15 13 12 13 12 11 13 16 16 15 12 11 12 12 11 11 11 11 11 12 12 12 12 11 10 9
28 27 25 26 27 26 26 26 26 25 23 22 22 23 23 23 24 25 25 25 24 23 24 24 23 21 21 20 18 18 18 16 16 15 14 15 15 13 12 13 14 11 11 14 16 15 13 12 12 11 10 10 9 9 11 11 11 12 13 11 10 9
28 26 25 27 26 24 25 26 25 24 24 23 23 23 22 22 23 25 26 26 23 21 23 24 22 22 21 21 19 18 18 17 16 15 15 16 15 13 12 13 16 14 10 12 15 17 16 13 12 11 10 9 9 9 8 8 9 11 13 12 11 10
26 24 26 30 26 23 24 25 25 24 24 23 23 23 22 22 22 24 26 26 23 20 22 23 23 22 21 21 20 20 18 18 17 16 16 16 15 13 13 13 16 16 12 11 14 17 18 15 12 11 10 9 8 8 7 8 9 10 12 13 13 12
26 26 28 27 20 19 24 23 23 24 24 22 21 21 21 22 22 23 25 25 22 21 22 23 23 22 20 21 22 21 20 20 18 17 17 16 16 14 15 16 16 17 16 15 15 17 18 17 14 11 10 9 8 7 6 7 8 9 10 11 13 14
27 27 26 23 18 21 25 22 20 22 21 19 19 18 19 21 23 23 24 24 21 21 23 23 23 22 21 21 22 23 22 21 19 17 18 17 15 15 15 16 16 17 20 20 18 17 19 20 17 12 10 10 8 7 5 5 5 6 8 10 13 14
28 26 24 25 25 25 26 24 21 21 19 17 18 17 17 20 22 23 23 23 21 21 23 24 23 22 22 22 23 24 24 22 20 18 18 16 15 15 16 16 18 20 22 21 19 19 20 18 14 12 10 8 7 5 4 4 5 6 7 8 10 12
27 25 23 26 28 25 24 25 22 21 21 21 21 19 17 18 20 22 22 22 22 22 22 23 23 23 22 22 23 24 25 22 20 19 19 17 15 16 17 18 21 23 22 19 18 19 19 14 14 16 11 5 3 3 3 3 4 6 6 7 9 12
25 25 24 26 28 22 20 22 19 18 21 22 21 20 18 17 19 22 22 22 23 23 23 22 22 23 22 21 22 23 23 22 19 19 19 18 17 18 19 19 20 24 24 22 20 20 17 13 17 18 8 3 2 2 1 1 3 4 5 7 9 11
25 25 24 26 28 22 18 21 19 18 19 18 17 18 18 18 20 22 23 23 23 23 23 22 22 22 21 21 21 21 22 21 19 18 19 18 18 19 18 18 19 22 25 25 23 23 18 13 17 18 11 6 4 0 1 2 4 3 4 6 8 9
26 26 25 25 29 26 22 24 23 21 22 20 19 21 22 23 23 24 24 24 24 23 23 23 22 21 20 20 20 20 21 20 19 19 18 16 17 19 18 18 19 21 23 24 25 24 19 16 20 18 11 8 4 2 6 8 4 1 2 5 6 8
26 26 26 27 31 30 27 27 27 27 28 26 24 25 26 25 25 24 23 23 24 24 23 22 21 21 20 19 19 20 20 20 21 20 17 16 17 19 19 19 20 20 21 22 24 24 21 20 23 17 11 10 5 4 13 14 6 3 3 3 6 9
27 28 28 28 31 31 29 30 30 29 29 29 29 29 27 24 23 23 23 23 24 24 23 22 20 20 20 19 18 19 20 20 21 19 17 17 18 19 19 19 19 19 19 21 21 22 22 23 23 17 12 10 6 7 16 14 11 10 5 2 4 6
29 30 30 30 32 31 31 33 32 31 30 30 31 29 27 25 23 25 24 23 24 24 23 21 20 20 19 18 19 19 19 20 20 19 18 17 18 19 19 20 20 19 19 20 19 20 21 23 23 18 14 9 6 14 15 9 12 13 6 4 3 3
33 32 32 32 33 32 33 34 33 33 31 30 29 27 25 25 25 26 25 24 24 24 23 21 20 20 19 19 19 18 19 20 19 19 18 17 18 19 18 19 20 19 19 19 19 20 21 22 23 20 16 13 14 19 13 6 12 14 8 6 3 4
32 34 33 33 34 33 33 35 33 33 33 30 28 27 25 25 26 26 25 25 25 23 23 22 20 20 20 19 19 19 19 19 18 17 18 19 19 19 18 18 19 18 19 18 18 19 20 21 22 20 18 17 18 21 17 12 16 18 13 8 5 5
31 34 34 33 33 32 33 34 33 32 33 31 28 28 28 27 27 27 26 25 24 21 21 21 20 20 21 20 20 20 20 19 17 17 19 20 19 19 18 18 18 19 19 19 18 18 19 20 20 20 20 19 18 21 20 17 20 22 19 16 12 8
31 33 34 33 32 31 32 33 32 32 31 31 29 28 29 29 29 29 28 26 24 22 21 22 20 20 21 21 21 20 20 19 18 17 18 19 19 18 17 18 19 20 19 19 18 18 19 20 19 18 19 20 18 19 19 17 19 22 19 18 17 12
28 30 32 33 32 30 30 30 30 31 30 29 27 25 26 28 29 29 29 27 26 24 24 24 23 23 23 22 20 19 18 18 18 17 17 18 18 18 17 17 18 19 19 18 17 17 18 18 18 17 18 19 19 17 18 16 17 20 20 19 20 17
17 23 25 28 30 29 29 29 28 28 28 26 24 23 23 25 28 30 29 28 26 24 25 26 25 24 24 21 19 19 18 18 18 17 17 19 19 19 17 17 17 18 18 17 16 16 17 17 18 18 17 18 19 17 17 16 16 20 21 19 21 24
6 9 13 16 19 19 18 21 24 26 26 24 25 26 25 25 27 30 29 28 26 25 25 26 25 25 23 21 20 21 20 20 20 17 17 19 20 19 17 16 17 19 18 17 16 16 16 16 17 17 16 16 18 18 17 15 16 19 21 20 21 26
4 8 12 12 12 12 10 12 17 21 22 22 25 28 27 26 28 29 29 28 27 26 26 26 26 24 22 21 22 22 21 21 21 18 18 19 18 18 17 16 18 19 18 17 16 16 16 16 15 15 15 16 18 17 16 15 16 18 18 20 23 26
Wind_Direction
169 172 174 175 176 179 182 182 181 180 177 174 172 169 167 166 165 162 158 155 155 158 159 160 156 153 156 158 160 155 141 132 128 128 128 121 117 121 120 121 136 143 138 129 120 107 91 76 66 84 121 124 116 106 99 99 101 107 113 113 114 114
173 175 176 174 177 181 183 183 183 182 178 176 175 172 170 169 169 167 162 159 158 159 162 162 159 157 159 160 159 158 148 136 134 136 134 128 122 125 128 126 132 141 142 133 124 110 87 70 59 69 116 130 117 107 103 100 100 109 116 117 116 113
177 177 177 175 178 180 182 184 185 183 179 178 178 175 173 173 174 172 167 164 164 164 166 165 163 162 160 161 159 161 156 142 141 143 138 135 131 129 133 135 134 137 141 136 127 111 84 66 57 65 113 135 122 111 108 105 103 110 116 117 116 114
182 180 179 178 179 181 183 185 186 184 181 180 180 178 176 177 178 176 170 169 170 169 170 167 165 165 161 161 159 163 164 151 151 151 144 143 141 136 135 140 141 141 141 136 130 114 85 62 57 75 116 134 124 115 112 109 105 108 114 117 117 119
185 183 182 181 182 183 184 186 187 185 182 182 182 181 179 179 179 176 172 171 172 171 170 166 166 166 164 163 161 166 169 162 162 159 154 152 150 146 138 139 144 147 145 138 135 121 91 64 64 88 123 134 127 120 114 110 106 107 113 120 125 126
182 184 185 184 185 186 186 187 188 186 184 184 185 184 182 181 180 177 175 173 172 171 170 169 169 168 167 167 167 169 169 167 169 166 163 162 158 155 145 139 140 143 145 141 140 131 112 90 83 101 129 136 130 122 116 114 110 109 114 123 131 129
181 184 186 187 188 189 190 190 189 187 185 185 187 184 182 182 180 178 177 175 173 172 172 172 171 171 169 170 172 173 170 167 170 172 172 171 166 163 156 145 141 141 140 137 141 145 148 161 122 121 137 140 135 125 120 120 114 111 117 124 130 130
183 185 187 188 190 192 193 193 190 187 187 186 186 182 181 180 178 179 179 178 176 174 174 174 173 173 171 170 172 173 174 172 169 171 173 174 170 167 164 154 149 147 143 139 152 168 176 191 176 148 151 147 139 131 126 123 116 115 119 123 129 133
186 188 189 189 191 193 194 193 189 188 188 187 186 183 182 180 178 180 181 180 179 177 177 176 173 172 168 166 164 160 163 161 160 164 167 171 171 171 171 164 159 157 154 153 167 181 189 191 182 170 171 160 147 141 136 128 123 125 124 125 131 138
188 189 190 190 190 192 193 192 190 191 191 189 188 187 185 183 181 182 182 183 184 182 179 175 171 168 161 154 151 149 148 147 149 154 155 158 161 165 169 165 165 167 169 178 183 189 194 188 182 187 185 180 176 165 150 139 134 134 130 128 131 138
191 191 191 190 189 191 193 192 191 194 193 191 191 191 190 188 185 185 185 186 188 186 180 174 171 167 159 151 150 151 150 151 153 153 149 151 154 156 161 164 170 175 178 191 194 197 200 192 189 203 202 189 184 175 162 151 144 140 138 135 131 134
194 193 192 190 190 191 194 193 192 195 195 195 194 194 195 194 191 189 188 188 190 188 182 177 172 168 162 156 157 159 160 161 163 166 160 160 163 162 168 174 180 186 189 197 200 198 197 192 187 197 202 185 176 174 169 159 150 146 145 142 137 136
196 194 193 191 191 193 195 195 195 196 197 197 195 196 197 197 196 194 192 192 192 189 184 180 176 172 167 162 165 171 174 174 176 177 170 166 166 166 175 176 172 185 194 191 184 182 183 183 182 184 185 177 172 173 172 165 158 155 153 148 145 144
197 194 192 191 193 196 198 198 197 196 198 199 197 198 198 198 199 198 197 196 195 192 188 185 181 177 173 170 174 179 183 185 180 175 172 172 169 164 170 168 163 173 180 174 167 168 174 175 173 169 165 171 173 173 173 171 165 160 159 153 151 152
195 193 190 192 196 198 201 201 199 197 198 201 199 199 199 199 200 200 199 199 199 196 191 189 187 182 178 177 179 177 177 178 175 174 176 180 179 171 167 167 168 165 159 158 158 160 172 176 173 168 156 157 166 169 172 173 170 166 163 156 153 154
193 191 189 195 200 201 202 203 203 200 200 202 202 203 203 201 200 199 199 200 201 199 194 192 191 187 181 178 178 174 171 173 178 181 182 185 183 177 169 165 173 175 161 155 154 158 171 176 174 171 159 158 166 172 175 174 173 172 167 161 154 150
189 187 188 196 203 203 203 206 207 203 201 203 203 206 207 205 201 199 199 199 199 198 196 195 192 190 185 179 177 175 173 175 182 183 183 184 182 179 173 161 162 173 171 160 154 155 163 168 168 165 159 164 170 173 178 177 178 178 174 170 160 153
184 183 187 197 202 201 203 207 207 205 204 203 203 207 210 210 204 200 198 198 197 196 196 195 192 189 186 182 178 175 174 175 180 182 181 180 179 180 177 163 156 162 172 167 160 156 157 162 161 154 146 150 156 160 169 172 177 179 180 180 170 168
178 180 190 199 197 194 200 203 203 205 205 202 202 207 210 212 207 201 199 198 198 196 193 192 190 188 187 185 180 177 175 172 176 179 178 178 180 179 175 167 157 158 168 175 169 157 152 155 153 145 137 136 143 152 160 166 171 177 185 188 181 182
176 184 192 194 186 185 197 199 201 205 204 202 203 205 207 211 209 204 201 200 199 196 192 192 193 192 189 187 184 180 176 172 174 177 177 180 184 180 174 169 159 158 165 168 164 154 150 151 142 126 119 124 132 144 155 160 166 172 185 197 193 191
176 188 189 186 183 190 196 194 197 202 201 201 204 203 204 209 209 206 203 199 198 196 195 197 198 196 192 188 184 182 179 175 174 180 183 183 183 177 170 168 160 157 161 162 159 153 149 143 129 115 111 113 119 135 152 158 171 180 185 199 199 195
177 182 183 188 190 192 196 194 194 197 195 196 202 203 203 209 210 206 203 198 196 196 196 199 200 197 193 189 186 184 182 177 173 179 184 183 180 172 167 167 161 156 161 164 163 158 153 143 129 128 125 110 99 108 131 155 177 189 186 196 198 193
177 178 182 192 189 183 192 198 196 196 195 195 199 201 204 212 212 207 205 200 198 197 196 198 199 196 193 189 187 186 182 177 173 177 181 179 175 170 167 168 165 162 161 161 163 166 169 161 144 137 127 115 108 90 104 138 156 170 176 184 192 194
175 177 184 192 188 178 183 194 199 198 195 194 196 198 202 211 211 207 205 202 201 201 200 198 196 193 192 190 187 184 180 176 175 180 182 177 172 173 174 173 171 167 163 156 158 169 179 178 161 151 134 103 101 86 135 130 106 134 175 180 186 197
173 176 184 191 188 180 177 188 196 194 190 190 193 196 200 207 209 206 206 205 204 204 204 201 196 192 192 190 184 180 178 176 177 186 187 178 174 178 184 184 179 174 170 165 163 172 183 193 184 173 158 136 120 98 204 148 115 118 177 185 188 197
173 177 184 188 187 185 185 188 188 185 186 187 190 197 202 206 206 204 206 208 207 206 206 205 200 197 196 192 183 178 178 177 181 190 190 183 179 183 187 187 186 182 179 176 171 173 185 197 192 185 180 171 168 202 163 144 134 106 154 181 189 193
178 179 181 183 186 186 186 187 187 189 192 190 193 201 204 206 206 204 206 208 208 206 206 207 204 201 202 197 187 182 181 182 187 191 190 187 185 188 189 187 187 189 187 185 180 178 183 188 189 196 209 205 228 224 170 158 160 154 143 179 183 186
186 184 183 185 187 188 186 185 187 191 194 196 202 205 201 200 202 205 211 210 206 204 204 208 207 205 204 198 189 184 183 188 193 193 191 190 190 191 192 189 188 191 191 192 192 188 186 185 189 196 200 205 240 198 172 168 171 157 135 156 159 173
189 187 188 191 191 191 191 188 187 189 195 200 207 207 198 193 196 203 212 210 204 202 201 205 208 206 203 197 192 187 186 194 197 194 193 194 195 193 192 191 189 191 192 193 199 199 193 189 191 193 186 185 176 164 162 167 170 157 135 152 151 158
186 186 190 194 194 194 193 191 189 190 194 199 205 206 197 189 192 199 208 207 202 201 201 202 204 203 199 195 197 193 189 196 197 195 197 196 195 194 193 194 192 194 195 194 198 202 201 197 197 197 191 180 162 159 158 151 165 163 148 154 166 165
182 186 191 193 194 196 196 194 193 194 196 198 201 201 194 190 192 196 203 205 201 202 203 201 199 200 197 194 197 196 192 194 193 196 199 194 190 192 194 196 196 198 198 195 196 200 204 203 201 201 198 190 178 175 178 176 175 172 162 159 156 154
183 187 191 194 195 197 198 198 197 197 199 201 203 200 194 193 193 195 199 201 199 202 205 203 199 196 194 191 193 195 195 194 191 193 195 193 193 193 195 199 200 201 198 194 197 199 199 201 200 200 200 198 193 191 193 192 186 181 178 174 163 154
187 188 191 194 198 199 201 203 201 201 202 205 209 206 200 198 196 196 197 197 197 199 202 205 202 193 189 190 192 193 196 194 190 190 190 192 196 194 194 199 199 199 195 193 198 201 200 201 201 200 201 201 201 202 202 200 193 190 187 177 163 156
191 191 192 193 198 201 204 206 205 205 206 206 209 210 206 203 200 198 198 196 196 198 199 200 197 190 185 187 188 187 188 185 183 186 189 192 195 192 192 195 195 194 192 193 199 203 205 206 205 203 203 204 207 208 205 202 198 195 191 180 168 159
205 199 198 195 198 200 204 208 207 208 211 207 205 209 214 211 204 201 199 196 196 197 197 195 191 186 183 183 183 181 181 181 182 186 191 191 190 190 190 192 193 193 192 193 198 201 204 207 206 205 206 207 209 208 205 206 206 203 199 194 183 170
265 228 214 205 204 203 207 213 213 213 213 209 204 207 215 214 207 204 200 196 195 195 195 192 187 184 182 181 182 181 182 185 185 183 184 184 184 186 188 190 192 192 193 194 196 198 202 203 203 204 207 209 206 204 207 210 208 204 204 203 195 181
290 249 226 218 211 205 209 222 226 223 216 209 206 207 212 212 208 206 202 197 195 194 191 187 185 184 183 182 182 181 181 183 183 180 180 183 184 185 188 191 191 192 195 196 196 199 201 201 202 204 206 206 204 203 207 206 198 198 203 205 199 188